Погода в Зарубино

Россия / Костромская область     58°50′23″N   42°37′00″E
темп.,
°C
ветер,
м/с
пор.,
м/с
влажн.,
%
обл.,
%
осадки,
мм/ч
давл.,
гПа
погр.,
м
24 мая, вт
вт2400:00−1ссз489799 0.4 1001602
03:00−2ссз379884 0.6 1002391
06:00−1ссз379496 0.3 1003569
09:00+1с3584100 0.3 1003873
12:00+2ссз358999 0.2 1005715
15:00+3ссз4693100 1.1 1007755
18:00+3ссз3691100 0.4 1008623
21:000сз289891 0.4 1010177
25 мая, ср
ср2500:00−2ссз389938 0.0 1011167
03:00−1ссз379999 0.0 1011237
06:00+1сз3898100 0.1 1011449
09:00+2сз3798100 0.4 1011425
12:00+5сз4995100 0.1 1011893
15:00+6сз5992100 0.7 10111103
18:00+4с4998100 1.6 1011934
21:00+3ссз2699100 2.0 1011383
26 мая, чт
чт2600:00+2сз1298100 0.0 101152
03:00+1з1299100 0.0 101045
06:00+3з2799100 0.4 1008697
09:00+5з2596100 0.8 1007529
12:00+6зсз2491100 1.1 1007758
15:00+8сз138198 2.1 1006736
18:00+8с12827 0.9 1005625
21:00+3юв22965 0.9 100428
27 мая, пт
пт2700:00+2юв249838 0.0 100384
03:00+1вюв279891 0.0 1001125
06:00+4вюв399599 0.0 999266
09:00+8вюв4793100 0.0 997506
12:00+10юв368997 0.2 997699
15:00+9юв3798100 1.8 997375
18:00+9юв3597100 0.2 998360
21:00+8юз3798100 0.4 998409
28 мая, сб
сб2800:00+5юз259928 0.0 999109
03:00+6ю2799100 0.0 999184
06:00+8ююз3898100 0.2 998340
09:00+11ю358639 0.8 997696
12:00+12ю4679100 2.3 9961276
15:00+8ю3897100 4.4 996486
18:00+7юз4109541 0.8 997719
21:00+6юз4119762 0.9 998675